Regional Weather Roundup
Issued by NWS

Home | Current Version | Previous Version | Graphics & Text | Print | Product List | Glossary Off
Versions: 1 2 3 4 5 6 7 8 9 10 11 12 13 14 15 16 17 18 19 20 21 22 23 24 25 26 27 28 29 30 31 32 33 34 35 36 37 38 39 40 41 42 43 44 45 46 47 48 49 50

821
ASUS43 KTOP 171659
RWRKS

WEATHER ROUNDUP FOR KANSAS
NATIONAL WEATHER SERVICE GOODLAND KS
1200 PM CDT TUE OCT 17 2017

NOTE:  "FAIR" INDICATES FEW OR NO CLOUDS BELOW 12,000 FEET WITH NO
SIGNIFICANT WEATHER AND/OR OBSTRUCTIONS TO VISIBILITY.

KSZ001>006-013>018-027>032-041>047-171800-
NORTHWEST KANSAS

CITY           SKY/WX    TMP DP  RH WIND       PRES   REMARKS
GOODLAND       SUNNY     71  29  21 E5        30.18F
HAYS           SUNNY     67  43  41 VRB3      30.13F
HILL CITY      SUNNY     72  36  26 VRB5      30.14F
RUSSELL        SUNNY     65  44  46 SW9       30.11F
$$

KSZ061>065-074>080-084>089-171800-
SOUTHWEST KANSAS

CITY           SKY/WX    TMP DP  RH WIND       PRES   REMARKS
DODGE CITY     SUNNY     67  40  37 S7        30.16F
ELKHART          N/A     68  43  40 NE8         N/A
GARDEN CITY    SUNNY     71  35  26 E5        30.15F
GREAT BEND     SUNNY     66  44  45 SW7       30.14F
LIBERAL        SUNNY     64  43  46 SE7       30.16F
$$

KSZ066>073-081>083-090>101-171800-
SOUTHEAST KANSAS

CITY           SKY/WX    TMP DP  RH WIND       PRES   REMARKS
CHANUTE        SUNNY     66  46  48 S15       30.24F
COFFEYVILLE    SUNNY     65  47  52 S14       30.26F
HUTCHINSON     SUNNY     67  43  41 S13       30.15F
NEWTON         SUNNY     65  44  46 SW17      30.17F
PARSONS        SUNNY     65  46  50 S10G21    30.26F
WICHITA INTL   SUNNY     66  44  45 S17       30.18F
WICHITA JABRA  SUNNY     66  42  41 SW24      30.18F
WICHITA MCCONL SUNNY     66  42  40 SW22G28   30.18F
WINFIELD       SUNNY     67  45  45 SW20G26   30.22F
$$

KSZ007>012-019>026-033>040-048>060-102>105-171800-
NORTHEAST KANSAS

CITY           SKY/WX    TMP DP  RH WIND       PRES   REMARKS
CONCORDIA      SUNNY     62  43  49 S8        30.12F
EMPORIA        SUNNY     69  42  37 S20       30.18F
LAWRENCE       SUNNY     67  44  43 S17G25    30.18F
MANHATTAN      SUNNY     67  44  43 SW16      30.13F
OLATHE IND     SUNNY     66  43  43 S22       30.21F
OLATHE EXE     SUNNY     63  44  50 S16G22    30.21F
SALINA         SUNNY     66  45  46 S13       30.13F
TOPEKA BILLARD SUNNY     69  43  38 S16       30.16F
TOPEKA FORBES  SUNNY     70  42  36 S15G25    30.16F
$$




USA.gov is the U.S. government's official web portal to all federal, state and local government web resources and services.